星链-11325 (STARLINK-11325)

导读 | 豆包AI

STARLINK-11325是美国于2024年10月15日发射的星链卫星,隶属于SpaceX公司的星链星座项目。星链计划旨在构建全球卫星互联网星座,为全球提供低延迟、高速率的互联网接入服务,该卫星入轨后将参与星链网络组网,进一步扩充星链星座的覆盖范围与服务能力。

基本信息
目录编号:
61538
目录名称:
STARLINK-11325
国际标识:
2024-184G
轨道中心:
EARTH
卫星名称:
星链-11325
卫星全名:
星链-11325 (STARLINK-11325)
卫星状态:
在轨 (已飞行587 天)
发射日期:
2024-10-15 UTC
国别 :
美国 (US)
星等 :
--
轨道信息
数据来源 国际轨道数据
星历时间: 2026-05-24T13:16:32+0800
1天前
查看轨道信息
半长轴: 6737.944km
偏心率: 0.0000889
轨道倾角: 53.159°
近地点辐角 108.949°
升交点赤经 223.670°
平近点角 251.162°
近地点: 359.207km
远地点: 360.407km
周期: 91.738分钟
每日圈数: 15.696821
详细信息
固有亮度:
5
最大亮度:
2.5
卫星平台:
Starlink V1.0
覆盖范围:
全球
运营商:
太空探索技术公司
运营商所在国:
美国
制造商(研发单位):
太空探索技术公司
制造商所在国:
美国
使用方式:
暂无
卫星简介
Starlink 计划是 SpaceX 推出的全球卫星互联网项目,通过发射低轨道卫星,为全球尤其是偏远地区提供高速、低延迟的互联网服务。自 2019 年起,Starlink 已部署数千颗卫星,旨在缩小全球数字鸿沟,推动互联网普及。该项目还为军事、航空等行业提供通信支持,带来广泛经济效益。
2D轨道图
3D轨道图
轨道高度分析图
轨道倾角分析图
轨道综合分析图
查看轨道综合分析图